Wind_Speed
15 16 16 16 18 17 12 9 8 9 9 9 7 6 6 5 4 4 3 2 1 1 2 3 4 4 4 4 4 4 4 4 5 5 5 5 5 5 5 4 4 4 3 3 3 3 3 3 3
14 14 15 16 17 14 10 9 9 10 10 9 8 7 7 6 5 4 4 3 1 1 2 3 4 4 4 4 4 5 5 5 5 5 5 5 5 5 4 4 3 3 3 3 3 2 2 2 3
13 13 14 16 15 11 9 8 10 11 11 10 8 8 8 7 6 5 4 4 2 1 1 2 4 4 5 5 5 5 5 6 5 5 5 5 4 4 4 3 3 2 2 2 2 2 2 2 2
12 13 14 14 12 9 8 8 9 10 10 10 10 9 9 8 7 6 5 4 3 1 1 1 3 4 4 4 5 5 5 6 6 6 5 5 4 4 3 2 2 2 2 2 2 2 2 2 2
10 12 12 11 10 5 7 7 7 8 10 10 10 9 8 9 8 6 5 4 3 2 1 0 1 3 3 4 5 6 6 6 6 6 6 5 4 3 3 2 2 2 2 2 3 3 2 2 1
8 12 12 10 7 5 6 7 8 8 10 10 9 8 9 9 9 8 6 5 4 3 2 1 2 3 4 4 5 6 7 7 7 7 6 5 4 3 3 2 2 2 2 3 3 2 2 2 1
9 11 10 6 4 5 7 6 6 7 8 9 10 9 10 10 10 9 7 7 6 5 4 3 3 3 4 5 6 7 7 8 8 7 6 6 5 3 3 2 1 1 2 3 2 2 2 1 1
9 10 8 4 2 4 6 6 7 8 8 8 11 11 11 11 11 10 9 8 8 7 6 5 5 5 5 7 8 8 8 8 8 8 7 6 5 4 3 2 1 2 2 2 2 2 1 1 1
8 10 8 3 0 5 7 5 7 9 8 8 10 12 12 12 11 11 10 10 9 8 7 8 7 6 6 7 8 9 9 9 9 9 8 7 6 5 4 2 2 2 2 2 1 1 1 1 1
6 7 5 2 3 4 7 5 6 9 8 7 10 12 13 12 12 11 11 11 11 11 10 10 8 8 8 8 9 9 9 10 10 10 10 8 7 6 4 3 2 2 2 1 2 2 2 1 1
3 2 2 3 6 6 5 6 6 9 11 11 11 13 12 12 12 12 12 13 13 12 12 12 10 10 8 8 8 9 8 10 11 10 10 9 8 6 5 4 2 2 2 1 1 2 2 2 1
1 1 1 3 5 5 5 5 5 7 10 11 13 13 13 13 12 13 13 13 13 13 13 13 12 11 8 7 8 9 10 10 11 11 10 10 9 7 6 4 3 2 1 1 1 2 2 1 1
3 3 3 5 5 5 6 5 5 7 9 11 12 13 13 12 13 13 13 13 14 14 15 15 14 11 9 8 9 9 10 11 11 11 10 10 9 7 6 4 3 2 2 1 1 2 2 1 1
4 4 5 5 5 5 5 6 6 8 10 12 12 12 13 13 13 13 14 15 15 15 15 16 14 12 11 10 10 10 9 10 10 10 10 9 9 8 6 5 3 3 2 2 1 2 2 1 1
5 5 5 5 6 7 6 6 7 10 11 12 13 13 14 14 14 14 14 15 16 16 16 16 14 13 12 11 10 10 9 10 10 10 10 10 9 8 7 6 4 3 3 2 2 1 1 1 1
5 5 5 7 8 8 7 7 9 12 12 12 13 13 14 15 15 14 14 15 16 17 16 16 15 14 13 12 10 9 9 10 10 11 11 11 10 9 8 7 5 5 4 3 2 1 1 1 1
5 6 5 9 12 10 8 7 11 13 13 13 13 13 13 14 14 14 15 16 17 17 16 16 15 15 12 10 7 7 8 9 10 10 11 12 11 10 9 8 7 6 4 3 2 2 2 1 2
2 6 8 10 14 13 9 9 11 11 13 15 15 14 13 13 14 14 15 16 17 17 16 16 14 13 10 8 6 6 8 9 10 10 11 12 12 11 10 9 8 7 6 4 3 2 2 2 2
9 11 11 10 15 15 11 9 11 13 13 15 17 15 13 14 13 14 15 16 16 17 16 15 13 11 9 6 6 6 7 9 11 11 12 12 12 12 11 10 9 8 7 5 4 3 3 2 2
12 12 12 12 16 15 12 10 11 14 15 16 16 16 15 15 14 14 15 16 16 16 15 14 13 11 9 7 6 6 7 8 10 11 11 12 13 12 12 11 10 8 8 7 6 5 4 3 2
14 13 13 12 14 15 12 10 11 16 17 17 16 16 15 15 14 14 15 15 15 15 14 12 11 10 9 7 6 5 6 7 8 11 12 13 13 13 13 12 11 10 9 8 7 6 5 4 4
16 15 15 15 15 13 10 11 15 17 18 17 15 15 16 15 14 14 15 14 14 14 13 11 11 9 8 7 6 6 6 7 9 10 11 13 13 13 13 13 12 11 11 10 9 8 7 6 5
17 16 16 16 15 13 11 12 16 17 18 16 16 16 16 16 14 12 13 13 13 13 11 10 10 10 8 7 6 6 7 8 9 11 12 12 13 13 13 13 13 12 12 11 11 10 9 8 7
19 18 17 16 14 14 11 13 15 17 18 16 17 16 16 16 14 13 13 13 12 12 10 10 9 9 8 6 5 5 6 7 9 11 13 13 14 14 14 13 13 13 13 13 12 12 11 10 9
20 18 16 14 13 12 11 13 15 18 19 19 20 17 16 15 14 12 12 12 11 11 10 9 9 8 7 7 7 7 7 7 8 11 12 14 14 15 15 15 14 14 14 14 14 13 13 12 12
21 18 16 11 11 12 12 13 14 17 19 19 19 18 15 14 13 12 11 11 11 10 10 10 9 8 8 7 6 6 6 6 8 10 12 13 13 14 15 16 15 15 15 15 15 15 15 15 14
22 20 17 16 14 14 14 14 16 17 19 19 18 17 15 14 13 11 10 10 10 9 9 9 9 8 7 7 6 6 6 6 7 8 11 13 13 14 15 16 16 17 17 17 17 17 17 17 17
22 19 17 20 20 18 15 17 19 18 18 18 17 16 16 14 13 12 11 10 9 9 9 8 8 8 8 7 7 7 7 7 7 8 9 11 13 14 15 16 17 18 18 18 19 19 20 19 19
23 23 22 20 19 18 16 18 20 20 18 16 17 16 16 15 13 12 11 11 10 10 9 9 9 9 8 8 8 7 7 7 7 7 9 11 12 14 15 16 17 18 19 20 20 20 21 21 21
21 22 23 24 23 22 19 20 21 19 16 17 17 17 17 16 14 13 13 12 11 11 11 10 10 9 9 9 9 8 8 7 8 8 10 11 12 13 14 16 17 18 19 20 21 21 21 21 22
Wind_Direction
83 82 82 81 74 67 58 42 28 26 28 29 29 21 26 20 20 17 18 34 62 160 173 176 181 187 189 190 191 196 196 193 188 180 171 163 155 147 142 135 130 123 121 118 112 109 111 108 109
88 85 81 76 69 62 50 32 22 24 26 29 23 15 22 21 24 25 25 39 67 133 162 182 190 196 201 201 204 207 206 203 198 190 180 174 167 158 150 144 137 130 122 123 118 120 120 122 123
93 89 77 66 59 51 40 24 19 18 24 22 20 20 19 21 22 24 28 38 64 113 171 197 201 204 207 210 216 219 215 209 205 200 193 188 182 172 160 156 149 139 130 126 125 124 129 132 127
95 91 79 70 61 39 26 23 16 11 15 15 11 18 19 20 20 20 21 30 36 57 116 207 207 208 212 215 214 215 218 212 211 207 203 203 199 191 179 167 165 150 139 133 133 131 133 141 138
99 87 79 79 67 28 13 19 14 5 6 13 6 7 16 20 18 18 21 29 27 24 32 280 240 226 221 227 222 219 224 223 221 216 216 213 207 195 183 175 165 155 145 137 140 138 132 141 147
89 78 75 73 59 4 356 7 1 356 0 6 359 357 15 15 15 15 19 21 17 7 360 321 270 247 234 232 230 231 232 229 226 226 224 218 214 205 189 183 170 153 138 134 138 142 139 141 139
88 77 70 62 39 346 340 355 339 339 357 0 344 346 8 10 10 9 10 11 15 12 358 336 302 264 247 239 238 237 236 235 233 229 225 224 222 217 205 199 179 154 141 138 133 137 137 143 138
95 94 96 79 7 323 326 340 333 334 341 0 340 341 357 6 4 2 2 1 2 0 349 339 326 287 259 246 242 238 239 240 238 234 232 229 227 224 222 221 200 171 145 138 129 128 134 130 126
101 92 74 75 317 302 308 326 328 326 332 357 339 342 354 359 358 356 356 355 353 347 343 335 325 306 273 252 243 240 242 242 237 234 232 228 228 226 227 230 215 194 159 144 130 116 130 136 118
105 86 67 254 241 269 299 319 324 315 313 326 335 341 350 352 353 354 352 349 345 343 340 333 320 310 292 266 246 243 241 237 235 235 229 227 227 228 226 227 218 199 168 148 132 125 126 119 94
95 93 148 243 253 262 293 314 317 306 310 321 327 335 342 345 350 350 347 344 344 343 334 329 329 322 307 274 251 243 245 238 235 237 231 230 230 231 227 222 219 204 180 151 127 123 118 111 89
7 327 263 263 274 285 288 289 299 296 305 319 320 326 332 337 343 345 342 340 340 339 333 331 331 324 315 287 258 247 248 244 239 232 231 233 233 234 230 219 214 206 203 187 146 124 123 126 97
269 289 292 290 292 301 297 292 286 284 296 304 313 324 330 333 339 340 340 338 335 335 334 330 326 322 314 296 276 262 255 238 231 231 230 229 228 231 233 220 212 207 205 191 158 133 119 105 90
263 280 288 297 307 306 308 305 291 285 298 300 309 322 329 330 335 336 336 337 335 332 330 331 326 321 309 299 284 265 253 238 231 230 230 227 225 230 230 218 209 207 201 189 162 121 112 102 75
277 285 300 317 309 310 309 300 284 284 296 300 307 316 322 327 330 332 333 334 334 332 329 331 328 321 310 300 288 265 245 241 229 227 230 227 224 224 224 220 213 207 209 187 172 126 113 109 84
284 300 327 312 297 304 307 301 275 289 293 296 304 309 315 323 326 329 331 331 332 332 330 328 326 323 315 300 281 257 245 234 227 228 230 225 223 220 220 222 216 212 205 193 189 179 144 120 98
307 330 335 287 290 295 301 292 283 291 296 301 300 303 308 317 322 327 329 329 328 329 329 328 327 324 314 298 280 255 247 235 230 231 229 222 221 220 220 221 218 211 208 202 201 200 174 141 117
297 292 283 273 279 289 294 283 284 287 297 299 299 298 306 315 319 324 327 327 326 327 327 327 327 322 314 295 276 260 242 231 230 232 227 222 223 223 221 220 216 214 210 206 207 204 185 166 143
229 232 230 244 263 280 287 278 280 288 294 295 298 303 306 309 316 319 322 324 324 325 325 326 329 323 312 302 279 256 240 235 229 231 231 228 227 225 221 221 222 218 211 211 215 217 204 188 178
245 242 242 250 270 282 287 283 279 282 289 297 299 300 302 303 311 316 318 320 322 324 324 323 326 322 312 304 289 263 241 234 231 228 228 228 227 222 220 220 223 218 216 218 219 220 217 207 204
250 249 246 247 264 283 295 297 283 279 288 300 302 300 301 304 310 314 315 318 321 323 324 321 321 319 315 306 291 266 253 242 234 228 225 226 224 221 220 221 222 221 222 224 223 223 223 223 223
253 255 254 252 255 266 278 284 282 280 288 298 304 304 305 306 309 311 313 316 320 322 324 324 323 322 318 304 286 270 259 247 234 228 225 223 220 220 219 221 222 222 225 228 230 230 231 234 238
251 251 255 258 260 259 253 259 274 277 284 290 297 301 302 304 305 309 310 314 318 322 323 325 326 325 317 301 287 271 260 251 239 234 228 224 220 220 219 221 222 223 226 230 232 234 235 238 243
249 251 255 259 263 265 259 249 263 271 279 285 286 293 296 299 302 306 308 313 316 320 322 326 327 323 316 306 293 272 265 254 240 235 233 228 223 221 222 223 224 225 229 232 235 237 239 241 244
248 249 252 261 270 277 264 250 251 260 272 280 286 292 297 298 299 303 307 311 314 314 318 321 323 322 316 304 286 276 262 252 244 237 234 230 229 227 227 227 227 229 232 236 240 242 245 246 248
247 244 240 241 270 274 261 249 250 257 276 285 286 289 292 293 296 300 304 308 311 309 315 320 326 325 318 309 291 272 261 257 251 240 236 232 234 233 231 230 232 234 235 240 244 246 248 251 252
239 242 234 231 241 267 278 266 255 267 281 285 286 286 285 287 291 294 300 305 308 308 312 315 319 320 316 311 300 278 266 261 256 247 239 236 236 234 233 234 237 239 241 243 246 248 249 253 255
230 237 235 226 234 245 259 267 269 270 277 288 290 285 285 286 285 287 294 300 306 308 309 311 312 315 315 317 310 291 273 266 262 253 243 239 237 237 236 236 238 241 244 246 249 251 252 253 255
230 225 228 232 232 238 249 255 259 264 268 282 289 287 286 286 283 283 289 294 300 304 304 305 310 310 312 315 315 302 297 282 268 258 250 241 239 240 242 239 241 245 248 251 251 253 255 256 258
237 234 228 230 232 230 240 262 265 260 269 276 282 283 284 282 282 284 285 289 295 300 302 298 301 304 306 309 309 303 294 283 269 260 255 249 246 245 246 246 247 250 251 254 256 255 256 259 261
Height
5896 5896 5896 5895 5894 5895 5897 5897 5896 5894 5893 5892 5890 5889 5887 5887 5887 5888 5885 5884 5884 5884 5885 5885 5886 5887 5888 5888 5889 5889 5889 5889 5889 5890 5890 5890 5890 5889 5890 5890 5890 5890 5890 5890 5890 5890 5890 5890 5890
5898 5899 5898 5895 5895 5898 5900 5899 5897 5896 5894 5893 5891 5890 5889 5888 5887 5887 5885 5885 5885 5885 5885 5886 5886 5887 5888 5888 5889 5889 5890 5890 5890 5890 5890 5890 5890 5890 5890 5890 5890 5890 5890 5890 5890 5890 5891 5891 5891
5900 5900 5899 5897 5899 5901 5902 5901 5899 5897 5896 5894 5893 5891 5891 5889 5888 5887 5886 5886 5886 5886 5886 5886 5887 5887 5888 5889 5889 5889 5890 5890 5890 5890 5891 5891 5891 5891 5891 5891 5891 5891 5891 5891 5891 5891 5891 5891 5892
5901 5901 5900 5901 5903 5904 5904 5902 5900 5899 5898 5896 5894 5893 5891 5891 5890 5888 5887 5887 5886 5886 5886 5886 5887 5887 5888 5888 5889 5889 5890 5890 5890 5891 5891 5891 5891 5891 5891 5891 5891 5891 5891 5891 5891 5891 5892 5892 5892
5901 5900 5901 5903 5905 5907 5906 5904 5902 5900 5899 5897 5896 5894 5892 5892 5890 5889 5888 5888 5887 5887 5887 5887 5887 5887 5888 5888 5889 5889 5889 5890 5890 5891 5891 5891 5891 5891 5891 5891 5891 5891 5891 5891 5892 5892 5892 5892 5892
5902 5900 5903 5905 5908 5908 5907 5905 5904 5901 5900 5898 5896 5894 5893 5893 5891 5890 5889 5888 5888 5888 5887 5887 5887 5887 5887 5888 5888 5889 5889 5890 5890 5890 5891 5891 5892 5892 5892 5892 5892 5892 5892 5892 5892 5892 5892 5892 5892
5904 5903 5905 5908 5910 5909 5908 5906 5905 5903 5901 5900 5897 5894 5893 5893 5892 5891 5890 5889 5888 5888 5887 5887 5887 5887 5887 5887 5888 5888 5889 5889 5890 5890 5891 5891 5892 5892 5892 5892 5892 5892 5892 5892 5892 5892 5892 5892 5893
5905 5906 5907 5909 5911 5911 5909 5907 5905 5903 5901 5900 5898 5895 5894 5894 5893 5892 5890 5889 5888 5887 5887 5887 5886 5886 5886 5886 5887 5888 5888 5889 5889 5890 5890 5891 5892 5892 5892 5892 5892 5892 5892 5893 5893 5893 5893 5893 5893
5906 5908 5908 5910 5912 5911 5909 5908 5906 5903 5900 5900 5898 5896 5895 5894 5893 5892 5890 5889 5888 5886 5886 5886 5885 5885 5885 5885 5885 5886 5887 5887 5888 5889 5890 5891 5891 5892 5892 5892 5892 5892 5893 5893 5893 5893 5893 5893 5893
5907 5907 5910 5911 5911 5911 5909 5908 5907 5904 5900 5899 5898 5897 5896 5895 5893 5892 5891 5889 5888 5886 5885 5885 5883 5883 5883 5883 5884 5885 5885 5886 5887 5888 5889 5890 5891 5892 5892 5892 5892 5893 5893 5893 5893 5893 5893 5893 5894
5907 5908 5909 5910 5910 5909 5909 5908 5907 5905 5902 5899 5897 5897 5897 5895 5894 5892 5890 5889 5887 5886 5884 5882 5881 5882 5882 5882 5882 5883 5884 5885 5886 5887 5888 5889 5890 5891 5892 5892 5893 5893 5893 5893 5894 5893 5893 5894 5894
5908 5908 5908 5909 5909 5908 5908 5908 5907 5905 5903 5900 5899 5898 5897 5895 5894 5892 5890 5888 5887 5885 5883 5881 5880 5880 5880 5880 5881 5882 5882 5883 5884 5886 5887 5889 5890 5891 5891 5892 5893 5893 5894 5894 5894 5894 5894 5895 5894
5907 5908 5908 5908 5907 5907 5906 5906 5906 5905 5904 5902 5900 5898 5896 5895 5893 5892 5890 5888 5886 5884 5882 5881 5879 5879 5878 5878 5879 5880 5880 5881 5883 5884 5886 5888 5889 5891 5891 5892 5893 5894 5894 5894 5894 5895 5895 5895 5895
5906 5906 5907 5907 5906 5906 5906 5905 5904 5903 5903 5901 5900 5898 5896 5894 5893 5891 5889 5887 5885 5883 5881 5879 5877 5877 5876 5876 5877 5877 5878 5880 5882 5884 5885 5887 5888 5890 5891 5892 5893 5894 5894 5895 5895 5895 5895 5895 5895
5905 5905 5906 5906 5906 5905 5905 5904 5903 5902 5902 5900 5899 5897 5895 5893 5892 5890 5888 5886 5884 5882 5880 5878 5876 5875 5874 5874 5874 5875 5876 5878 5880 5882 5884 5886 5888 5889 5891 5892 5893 5894 5894 5895 5895 5895 5895 5896 5896
5904 5904 5905 5906 5905 5905 5906 5904 5902 5901 5900 5898 5897 5896 5894 5892 5891 5889 5887 5886 5883 5881 5879 5877 5875 5873 5872 5871 5872 5873 5875 5876 5877 5880 5883 5885 5887 5888 5890 5891 5893 5893 5894 5895 5896 5896 5896 5896 5896
5902 5904 5906 5907 5904 5905 5904 5904 5901 5900 5898 5896 5896 5895 5893 5891 5890 5888 5886 5884 5882 5880 5878 5875 5873 5872 5870 5870 5870 5872 5874 5875 5876 5879 5882 5884 5886 5887 5889 5891 5892 5893 5894 5895 5896 5896 5896 5896 5896
5903 5907 5909 5908 5904 5903 5903 5902 5901 5899 5898 5896 5893 5892 5891 5890 5889 5887 5885 5883 5881 5879 5876 5874 5872 5870 5868 5868 5870 5871 5873 5874 5876 5878 5880 5883 5884 5886 5888 5890 5891 5893 5894 5895 5896 5896 5896 5897 5897
5901 5903 5904 5906 5903 5902 5901 5901 5900 5898 5897 5895 5891 5889 5889 5888 5887 5886 5884 5882 5879 5877 5875 5873 5871 5869 5868 5868 5869 5870 5872 5873 5875 5877 5879 5881 5883 5885 5887 5889 5891 5892 5893 5894 5895 5896 5896 5897 5897
5897 5899 5901 5902 5901 5900 5899 5899 5898 5897 5895 5893 5891 5889 5888 5887 5885 5884 5882 5880 5878 5876 5874 5872 5870 5869 5868 5868 5868 5869 5870 5872 5874 5875 5877 5880 5882 5884 5886 5888 5890 5891 5893 5894 5895 5896 5896 5897 5897
5894 5896 5898 5899 5899 5897 5897 5897 5896 5895 5893 5891 5890 5887 5886 5885 5884 5882 5881 5879 5877 5875 5873 5871 5869 5868 5868 5867 5867 5867 5869 5870 5872 5874 5876 5878 5880 5882 5884 5887 5889 5890 5892 5893 5894 5895 5896 5896 5897
5890 5892 5893 5894 5895 5895 5896 5896 5894 5892 5890 5888 5887 5885 5884 5883 5882 5881 5879 5877 5876 5874 5872 5870 5869 5868 5866 5866 5866 5867 5868 5869 5871 5872 5874 5876 5878 5881 5883 5885 5887 5889 5891 5892 5893 5894 5895 5896 5896
5887 5889 5890 5890 5891 5892 5893 5894 5893 5889 5888 5885 5884 5883 5882 5881 5880 5879 5878 5876 5875 5873 5871 5870 5868 5867 5866 5865 5865 5865 5866 5867 5869 5870 5872 5874 5877 5879 5881 5883 5885 5887 5889 5891 5892 5893 5894 5895 5895
5882 5884 5885 5886 5887 5889 5890 5891 5890 5887 5885 5883 5882 5881 5880 5879 5878 5877 5876 5875 5873 5872 5870 5869 5868 5866 5865 5864 5864 5864 5865 5866 5867 5868 5870 5872 5875 5877 5879 5881 5883 5885 5887 5889 5890 5891 5892 5893 5894
5878 5881 5883 5884 5885 5886 5887 5887 5888 5884 5883 5882 5879 5878 5878 5877 5876 5876 5875 5873 5872 5871 5870 5868 5867 5865 5864 5863 5863 5863 5864 5864 5865 5866 5868 5870 5872 5875 5877 5879 5881 5883 5885 5887 5888 5889 5890 5891 5892
5874 5877 5880 5883 5884 5882 5882 5883 5883 5882 5881 5880 5878 5876 5876 5875 5874 5874 5873 5872 5871 5870 5869 5867 5866 5865 5863 5863 5862 5862 5862 5863 5863 5864 5866 5868 5870 5872 5874 5876 5879 5881 5883 5884 5886 5887 5888 5889 5890
5869 5872 5876 5879 5880 5881 5880 5880 5878 5877 5877 5877 5876 5875 5874 5873 5873 5872 5871 5871 5870 5869 5868 5867 5866 5864 5863 5862 5861 5861 5861 5861 5862 5863 5864 5866 5868 5870 5871 5874 5876 5878 5880 5881 5882 5884 5885 5886 5886
5865 5868 5871 5873 5876 5878 5879 5877 5874 5873 5873 5873 5873 5872 5871 5871 5871 5870 5870 5869 5869 5868 5867 5866 5865 5864 5863 5861 5860 5860 5860 5860 5860 5861 5862 5864 5866 5867 5869 5871 5873 5875 5876 5878 5879 5880 5881 5882 5883
5860 5863 5866 5870 5872 5875 5876 5876 5870 5869 5870 5870 5870 5869 5869 5869 5869 5868 5868 5868 5867 5867 5866 5865 5864 5863 5862 5861 5860 5859 5859 5859 5859 5860 5861 5862 5863 5865 5866 5868 5870 5871 5873 5874 5875 5876 5877 5878 5879
5855 5858 5861 5864 5866 5869 5870 5872 5866 5867 5867 5867 5867 5866 5866 5866 5866 5866 5866 5866 5866 5865 5864 5863 5862 5861 5860 5859 5859 5858 5858 5858 5858 5859 5859 5860 5861 5862 5864 5865 5866 5867 5869 5870 5871 5871 5872 5873 5874